(81853) = 2000 KW60

Discovered at Anderson Mesa on 2000-05-25 by LONEOS.

Orbit

Orbit type: Main Belt

Note: WebGL enabled browser required.

epoch2023-09-13.0
epoch JD2460200.5
perihelion date2023-06-03.48503
perihelion JD2460098.98503
argument of perihelion (°)168.49580
ascending node (°)106.23682
inclination (°)6.07307
eccentricity0.0784651
perihelion distance (AU)2.5172996
Tisserand w.r.t. Jupiter3.3
ΔV w.r.t. Earth (km/sec)10.1
semimajor axis (AU)2.7316378
mean anomaly (°)22.16151
mean daily motion (°/day)0.21830780
aphelion distance (AU)2.946
period (years)4.51
P-vector [x]0.08358066
P-vector [y]-0.92245995
P-vector [z]-0.37693754
Q-vector [x]0.99131045
Q-vector [y]0.11552503
Q-vector [z]-0.06290919
absolute magnitude15.0
phase slope0.15
uncertainty0
referenceMPEC 2024-A26
observations used1197
oppositions22
arc length (days)14532
first opposition used1983
last opposition used2023
residual rms (arc-secs)0.73
perturbers coarse indicatorM-v
perturbers precise indicator003Ek
first observation date used1983-10-01.0
last observation date used2023-07-15.0
computer nameMPCLINUX
JD of orbit computation2456847.654102
perihelion JD uncertainty (days)1.5940E-04
argument of perihelion uncertainty (°)5.7359E-05
ascending node uncertainty (°)4.7229E-05
inclination uncertainty (°)4.3085E-06
eccentricity uncertainty 4.0569E-08
perihelion distance uncertainty (AU)1.1697E-07
Minimum Orbit Intersection Distances (in AU)
for orbit epoch: 2460200.5, reference: E2024-A12
Mercury2.05692
Venus1.7908
Earth1.50059
Mars1.0334
Jupiter2.13108
Saturn6.10743
Uranus15.6325
Neptune26.9924

Observations

1231 total observations over interval: 1983 10 01.54024 – 2023 07 15.969817
These data are available for download (format description).

Date (UT) J2000 RA J2000 Dec Magn Location Ref
1983 10 01.54024 00 12 27.48 -08 45 09.5 18.8 V 260 – Siding Spring Observatory-DSS MPS 1759756
1983 10 01.58191 00 12 25.31 -08 45 22.7   260 – Siding Spring Observatory-DSS MPS 1759756
1996 07 14.49976 19 57 35.16 -22 14 31.7 18.8 V 566 – Haleakala-NEAT/GEODSS MPS 35740
1996 07 14.51833 19 57 34.13 -22 14 37.5 19.2 V 566 – Haleakala-NEAT/GEODSS MPS 35740
1996 07 14.54004 19 57 32.95 -22 14 44.0 18.9 V 566 – Haleakala-NEAT/GEODSS MPS 35740
1998 11 26.50456 09 16 10.58 +17 17 36.7 20.1 V 691 – Steward Observatory, Kitt Peak-Spacewatch MPS 43261
1998 11 26.52136 09 16 10.96 +17 17 36.9 20.0 V 691 – Steward Observatory, Kitt Peak-Spacewatch MPS 43261
2000 04 26.30520 15 37 30.30 -10 48 49.7 18.0 R 699 – Lowell Observatory-LONEOS MPS 34304
2000 04 26.32745 15 37 29.32 -10 48 46.5   699 – Lowell Observatory-LONEOS MPS 34304
2000 04 26.34968 15 37 28.33 -10 48 42.6   699 – Lowell Observatory-LONEOS MPS 34304
2000 04 26.37187 15 37 27.16 -10 48 40.8   699 – Lowell Observatory-LONEOS MPS 34304
2000 05 05.33200 15 30 18.90 -10 25 22.9 18.3   704 – Lincoln Laboratory ETS, New Mexico MPS 34304
2000 05 05.34408 15 30 18.23 -10 25 21.9 18.5   704 – Lincoln Laboratory ETS, New Mexico MPS 34304
2000 05 05.35608 15 30 17.62 -10 25 19.1 18.4   704 – Lincoln Laboratory ETS, New Mexico MPS 34304
2000 05 05.36809 15 30 16.88 -10 25 16.9 19.0   704 – Lincoln Laboratory ETS, New Mexico MPS 34304
2000 05 05.38012 15 30 16.35 -10 25 16.2 18.5   704 – Lincoln Laboratory ETS, New Mexico MPS 34304
2000 05 25.24611 15 12 58.42 -09 51 04.2 17.6 R 699 – Lowell Observatory-LONEOS MPS 16005
2000 05 25.26698 15 12 57.38 -09 51 03.0   699 – Lowell Observatory-LONEOS MPS 16005
2000 05 25.28797 15 12 56.33 -09 51 01.9   699 – Lowell Observatory-LONEOS MPS 16005
2000 05 25.30890 15 12 55.25 -09 51 00.7   699 – Lowell Observatory-LONEOS MPS 16005
2000 05 27.24115 15 11 21.69 -09 49 41.6 17.6   704 – Lincoln Laboratory ETS, New Mexico MPS 16005
2000 05 27.25468 15 11 21.05 -09 49 41.2 18.7   704 – Lincoln Laboratory ETS, New Mexico MPS 16005
2000 05 27.26817 15 11 20.38 -09 49 40.9 18.5   704 – Lincoln Laboratory ETS, New Mexico MPS 16005
2000 05 27.28170 15 11 19.71 -09 49 40.8 18.3   704 – Lincoln Laboratory ETS, New Mexico MPS 16005
2000 05 27.29517 15 11 19.03 -09 49 39.7 18.5   704 – Lincoln Laboratory ETS, New Mexico MPS 16005
2000 06 06.26070 15 04 12.89 -09 50 05.2 18.7 R 699 – Lowell Observatory-LONEOS MPS 34304
2000 06 06.27096 15 04 12.44 -09 50 05.7   699 – Lowell Observatory-LONEOS MPS 34304
2000 06 06.28123 15 04 12.03 -09 50 06.3   699 – Lowell Observatory-LONEOS MPS 34304
2000 06 06.29153 15 04 11.62 -09 50 06.4   699 – Lowell Observatory-LONEOS MPS 34304
2001 08 16.35845 00 09 25.48 -07 35 11.2 19.5   704 – Lincoln Laboratory ETS, New Mexico MPS 35740
2001 08 16.38305 00 09 24.87 -07 35 20.7 19.4   704 – Lincoln Laboratory ETS, New Mexico MPS 35740
2001 08 16.39594 00 09 24.61 -07 35 26.0 19.1   704 – Lincoln Laboratory ETS, New Mexico MPS 35740
2001 08 25.27147 00 05 19.63 -08 29 14.3 18.8   644 – Palomar Mountain/NEAT MPS 35740
2001 08 25.29271 00 05 18.88 -08 29 22.6 18.7   644 – Palomar Mountain/NEAT MPS 35740
2001 08 25.31430 00 05 18.12 -08 29 30.8 18.5   644 – Palomar Mountain/NEAT MPS 35740
2001 08 25.31676 00 05 18.02 -08 29 30.1 18.9   704 – Lincoln Laboratory ETS, New Mexico MPS 35740
2001 08 25.33098 00 05 17.53 -08 29 34.5 19.9   704 – Lincoln Laboratory ETS, New Mexico MPS 35740
2001 08 25.34542 00 05 16.96 -08 29 40.7 18.8   704 – Lincoln Laboratory ETS, New Mexico MPS 35740
2001 09 12.33380 23 52 44.85 -10 28 02.1 18.7   704 – Lincoln Laboratory ETS, New Mexico MPS 35740
2001 09 12.34890 23 52 44.09 -10 28 07.9 18.4   704 – Lincoln Laboratory ETS, New Mexico MPS 35740
2001 09 12.36325 23 52 43.35 -10 28 13.0 18.8   704 – Lincoln Laboratory ETS, New Mexico MPS 35740
2001 09 12.37775 23 52 42.67 -10 28 18.7 19.0   704 – Lincoln Laboratory ETS, New Mexico MPS 35740
2001 09 12.39220 23 52 42.00 -10 28 24.8 19.0   704 – Lincoln Laboratory ETS, New Mexico MPS 35740
2001 09 19.17332 23 47 13.14 -11 09 31.5 18.2 R 699 – Lowell Observatory-LONEOS MPS 35740
2001 09 19.19205 23 47 12.23 -11 09 37.2   699 – Lowell Observatory-LONEOS MPS 35740
2001 09 19.21087 23 47 11.21 -11 09 44.4   699 – Lowell Observatory-LONEOS MPS 35740
2001 09 19.22979 23 47 10.24 -11 09 51.6   699 – Lowell Observatory-LONEOS MPS 35740
2001 09 19.31294 23 47 06.12 -11 10 19.3 19.0   644 – Palomar Mountain/NEAT MPS 35740
2001 09 19.33415 23 47 05.05 -11 10 26.7 19.0   644 – Palomar Mountain/NEAT MPS 35740
2001 09 19.35593 23 47 03.95 -11 10 34.0 19.2   644 – Palomar Mountain/NEAT MPS 35740
2001 09 24.28258 23 43 06.05 -11 37 02.8 18.7   644 – Palomar Mountain/NEAT MPS 40208
2001 09 24.30382 23 43 05.00 -11 37 09.2 19.2   644 – Palomar Mountain/NEAT MPS 40208
2001 09 24.32486 23 43 03.96 -11 37 15.2 20.0   644 – Palomar Mountain/NEAT MPS 40209
2001 09 25.18667 23 42 23.49 -11 41 33.2 18.8   704 – Lincoln Laboratory ETS, New Mexico MPS 48782
2001 09 25.20136 23 42 22.74 -11 41 37.9 18.4   704 – Lincoln Laboratory ETS, New Mexico MPS 48782
2001 09 25.21663 23 42 21.98 -11 41 43.1 18.7   704 – Lincoln Laboratory ETS, New Mexico MPS 48782
2001 09 25.23140 23 42 21.25 -11 41 47.0 18.9   704 – Lincoln Laboratory ETS, New Mexico MPS 48782
2001 10 10.26316 23 31 50.49 -12 36 07.5 18.9   644 – Palomar Mountain/NEAT MPS 37626
2001 10 10.28436 23 31 49.72 -12 36 10.5 18.7   644 – Palomar Mountain/NEAT MPS 37626
2001 10 10.30536 23 31 48.96 -12 36 13.0 18.7   644 – Palomar Mountain/NEAT MPS 37626
2001 10 16.15753 23 28 44.82 -12 45 55.1 18.8   644 – Palomar Mountain/NEAT MPS 39115
2001 10 16.17859 23 28 44.19 -12 45 56.6 19.1   644 – Palomar Mountain/NEAT MPS 39115
2001 10 16.19959 23 28 43.59 -12 45 57.9 18.9   644 – Palomar Mountain/NEAT MPS 39115
2001 10 20.16337 23 27 03.97 -12 48 43.7 18.5   704 – Lincoln Laboratory ETS, New Mexico MPS 39115
2001 10 20.17949 23 27 03.55 -12 48 43.0 19.3   704 – Lincoln Laboratory ETS, New Mexico MPS 39115
2001 10 20.19628 23 27 03.08 -12 48 43.9 19.3   704 – Lincoln Laboratory ETS, New Mexico MPS 39115
2001 10 24.15242 23 25 45.74 -12 48 24.6 19.4   644 – Palomar Mountain/NEAT MPS 39115
2001 10 24.17338 23 25 45.35 -12 48 24.2 19.5   644 – Palomar Mountain/NEAT MPS 39115
2001 10 24.19458 23 25 44.98 -12 48 23.4 19.1   644 – Palomar Mountain/NEAT MPS 39115
2002 12 11.30274 05 51 09.42 +20 03 44.1 18.6   704 – Lincoln Laboratory ETS, New Mexico MPS 67735
2002 12 11.31793 05 51 08.48 +20 03 45.6 19.3   704 – Lincoln Laboratory ETS, New Mexico MPS 67735
2002 12 11.33316 05 51 07.55 +20 03 47.6 19.3   704 – Lincoln Laboratory ETS, New Mexico MPS 67735
2002 12 11.34837 05 51 06.72 +20 03 48.6 19.1   704 – Lincoln Laboratory ETS, New Mexico MPS 67735
2002 12 11.36339 05 51 05.75 +20 03 49.7 18.9   704 – Lincoln Laboratory ETS, New Mexico MPS 67735
2003 01 04.23327 05 28 26.60 +20 35 47.6 19.6   704 – Lincoln Laboratory ETS, New Mexico MPS 69684
2003 01 04.24772 05 28 25.80 +20 35 48.1 19.9   704 – Lincoln Laboratory ETS, New Mexico MPS 69684
2003 01 04.26231 05 28 25.04 +20 35 50.2 20.2   704 – Lincoln Laboratory ETS, New Mexico MPS 69684
2003 01 04.27679 05 28 24.40 +20 35 51.3 20.2   704 – Lincoln Laboratory ETS, New Mexico MPS 69684
2003 01 04.29152 05 28 23.51 +20 35 52.3 19.4   704 – Lincoln Laboratory ETS, New Mexico MPS 69684
2003 12 19.46259 11 56 15.11 +05 49 03.9 21.5 V 691 – Steward Observatory, Kitt Peak-Spacewatch MPS 94563
2003 12 19.47659 11 56 15.74 +05 49 01.7 21.2 V 691 – Steward Observatory, Kitt Peak-Spacewatch MPS 94563
2003 12 19.49056 11 56 16.43 +05 48 59.4 21.1 V 691 – Steward Observatory, Kitt Peak-Spacewatch MPS 94563
2003 12 27.43482 12 02 21.52 +05 31 38.2 20.4   704 – Lincoln Laboratory ETS, New Mexico MPS 95716
2003 12 27.44814 12 02 22.17 +05 31 35.6 20.0   704 – Lincoln Laboratory ETS, New Mexico MPS 95716
2003 12 27.46134 12 02 22.68 +05 31 34.6 20.2   704 – Lincoln Laboratory ETS, New Mexico MPS 95716
2003 12 27.47493 12 02 23.24 +05 31 33.2 20.5   704 – Lincoln Laboratory ETS, New Mexico MPS 95716
2004 02 17.40577 12 11 05.90 +07 24 57.7 19.6 V 703 – Catalina Sky Survey MPS 98669
